Regional Weather Roundup
Issued by NWS

Home | Current Version | Previous Version | Text Only | Print | Product List | Glossary Off
Versions: 1 2 3 4 5 6 7 8 9 10 11 12 13 14 15 16 17 18 19 20 21 22 23 24 25 26 27 28 29 30 31 32 33 34 35 36 37 38 39 40 41 42 43 44 45 46 47 48 49 50

000
ASUS45 KTFX 311019
RWRMT
MONTANA HOURLY WEATHER ROUNDUP
NATIONAL WEATHER SERVICE GREAT FALLS MT
319 AM MST SAT JAN 31 2015

NOTE: "FAIR" INDICATES FEW OR NO CLOUDS BELOW 12000 FEET WITH NO
SIGNIFICANT WEATHER AND/OR OBSTRUCTIONS TO VISIBILITY.

* THESE STATIONS ARE NOT UNDER NWS QUALITY CONTROL. THEY DO NOT
   REPORT WEATHER SUCH AS PRECIPITATION OR FOG.

MTZ001>007-043-311100-
WEST OF THE DIVIDE
CITY           SKY/WX    TMP DP  RH WIND       PRES   REMARKS
KALISPELL      FOG       25  25 100 CALM      30.12F VSB 1/2
MISSOULA       FOG       21  19  92 N3        30.15S
BUTTE          MOCLDY    16  12  84 S5        30.07R WCI   8
MULLAN PASS    FOG       21  21 100 VRB6      30.06R VSB M1/4 WCI  13
* ANACONDA     PTCLDY    21  16  81 SW3        N/A
* ESSEX        N/A       19  17  92 SE1        N/A
* EUREKA APT   PTCLDY    27  21  78 CALM      30.13S
* HAMILTON APT PTCLDY    21  18  88 E2        30.10F
* LIBBY APT    MOCLDY    27  25  92 CALM      30.16F
* LINCOLN      N/A       16  13  88 N2         N/A
* LOOKOUT PASS N/A       23  23 100 N11        N/A   WCI  12
* POLSON       N/A       23  22  96 W1         N/A
* RONAN APT    CLOUDY    23  21  92 N/A        N/A
* SEELEY LAKE  N/A       11   8  88 N/A        N/A
* THOMP F APT  CLOUDY    34  10  37 N8G15      N/A   WCI  27
$$

MTZ008-052>055-311100-
SOUTHWEST MONTANA
CITY           SKY/WX    TMP DP  RH WIND       PRES   REMARKS
BOZEMAN        PTCLDY    21  18  88 S5        30.06F WCI  14
DILLON         PTCLDY    21  14  74 S9        30.05F WCI  11
* W YELLOWSTON PTCLDY   N/A N/A N/A N/A        N/A
* THREE FORKS  MOCLDY    21  21 100 N/A        N/A
* BOULDER HILL N/A       27  11  51 S6G11      N/A   WCI  20
* MONIDA PASS  N/A       10   8  92 W7         N/A   WCI  -1
* RAYNOLDS PAS N/A       12   0  58 S1         N/A
* WHITEHALL    N/A       22  16  78 NW6G11     N/A   WCI  14
* WISE RIVER   N/A       13   8  80 W9         N/A   WCI   1
$$

MTZ009>010-012-014-046-048-049-054-311100-
EAST SLOPES AND CENTRAL MONTANA
CITY           SKY/WX    TMP DP  RH WIND       PRES   REMARKS
CUT BANK       FOG       25  25 100 N20G25    30.06R VSB 1 1/2 WCI  11
GREAT FALLS    CLOUDY    34  21  59 N14       30.01R WCI  24
HELENA         CLOUDY    25  21  85 S5        30.05F WCI  19
MALMSTROM AFB  CLOUDY    34  21  59 NW12      30.02R WCI  25
* CONRAD       CLOUDY    27  25  92 NW16       N/A   WCI  15
* DEARBORN     N/A       35  19  52 S7         N/A   WCI  29
* EAST GLACIER N/A       22  21  96 E8G17      N/A   WCI  13
* MONARCH      N/A       29  10  45 S4         N/A
* PENDROY      N/A       24  24 100 VRB19G27    N/A   WCI  10
* ROGERS PASS  N/A       29  16  58 S9G14      N/A   WCI  21
* SWEET GRASS  N/A       22  22 100 VRB17      N/A   WCI   8
* WHITE SULPH  N/A       24  16  71 E3G9       N/A
$$

MTZ011-013-016-021-035-040-045-047-050-051-311100-
NORTH CENTRAL MONTANA
CITY           SKY/WX    TMP DP  RH WIND       PRES   REMARKS
HAVRE          CLOUDY    28  27  96 E17G26    30.01F WCI  16
LEWISTOWN      MOCLDY    25  16  69 SE7       29.95F WCI  17
* N BAR RANCH  CLEAR     27  12  53 CALM      29.93F
* CHINOOK      CLOUDY    28  27  96 E13       30.04R WCI  17
* CHESTER      N/A       29  24  82 NE8G17     N/A   WCI  21
* DENTON       N/A       28  18  66 S3         N/A
* GEYSER       N/A       30  16  56 W12        N/A   WCI  20
* JUDITH GAP   N/A       29  18  63 N2         N/A
* LOMA         N/A       28  23  81 SW6        N/A   WCI  21
$$

MTZ017>020-022>027-061-062-311100-
NORTHEAST MONTANA
CITY           SKY/WX    TMP DP  RH WIND       PRES   REMARKS
GLASGOW        FOG       25  21  85 E24       30.08S VSB 3    WCI  10
GLENDIVE       CLOUDY    27  25  92 E15       30.08F WCI  15
JORDAN         CLEAR     27  23  85 E8        30.00S WCI  19
SIDNEY         CLOUDY    25  21  85 NE9       30.18S VSB 3    WCI  16
WOLF POINT     CLOUDY    23  19  85 E18       30.15S WCI   9
* BEAVER HILL  N/A       24  23  96 E20G26     N/A   WCI   9
* CIRCLE       N/A       27  26  96 NE15G21    N/A   WCI  15
* LINDSAY DVD  N/A       24  24 100 E16G24     N/A   WCI  11
* NAVAJO       N/A       19  17  92 NE11       N/A   WCI   7
* PLENTYWOOD A PTCLDY    19  18  96 E16       30.19S WCI   4
* POPLAR APT   PTCLDY    21  21 100 N/A       30.15F
* SACO         N/A       26  24  92 NE17G24    N/A   WCI  13
$$

MTZ028>042-056>058-311100-
SOUTHCENTRAL AND SOUTHEAST MONTANA
CITY           SKY/WX    TMP DP  RH WIND       PRES   REMARKS
BAKER          PTCLDY    23  21  92 E8        30.05F WCI  14
BILLINGS       CLEAR     30  25  82 SW14      29.96F WCI  19
LIVINGSTON     PTCLDY    30  16  56 W12       30.00F WCI  20
MILES CITY     PTCLDY    23  19  85 NE8       30.00F WCI  14
* BIG TIMBER A CLEAR     34  16  48 W20G28    29.97F WCI  23
* FORSYTH APT  PTCLDY    25  21  85 CALM      29.98F
* LAUREL APT   CLEAR     34  21  59 SW5        N/A   WCI  29
* ROUNDUP APT  CLEAR     28  18  66 SW7        N/A   WCI  21
* ALZADA       N/A       30  24  78 NE8        N/A   WCI  22
* HYSHAM       N/A       31  18  59 W1         N/A
* LAME DEER    N/A       31  19  61 S9         N/A   WCI  23
* REED POINT   N/A       19  17  92 N/A        N/A
$$

REGIONAL REPORTS...DAKOTAS
CITY           SKY/WX    TMP DP  RH WIND       PRES   REMARKS
WILLISTON      CLOUDY    25  19  78 E13       30.20S WCI  13
DICKINSON      FOG       23  21  92 NE14      30.11F VSB M1/4 WCI  10
BEACH          FOG       25  25 100 E14       30.09F VSB 3/4  WCI  13
CROSBY         CLOUDY    18  16  92 NE13      30.26S WCI   5
TIOGA          CLOUDY    18  18 100 E14       30.23F WCI   4
WATFORD CITY   CLOUDY    23  21  92 E10       30.17S WCI  13
BISMARCK       CLOUDY    23  21  92 NE7       30.24R WCI  15
GRAND FORKS    PTCLDY     9   0  66 N21G28    30.32R WCI -11
FARGO          CLOUDY    18  12  77 N15       30.25R WCI   4
BUFFALO SD     PTCLDY    27  23  85 SE6       29.98F WCI  20
RAPID CITY     CLOUDY    28  21  75 N5        30.04F WCI  22
$$

REGIONAL REPORTS...WYOMING/IDAHO/WASHINGTON
CITY           SKY/WX    TMP DP  RH WIND       PRES   REMARKS
GILLETTE       CLOUDY    30  23  75 S12       29.95F WCI  20
SHERIDAN       CLOUDY    25  19  78 NW9       29.93F WCI  16
CODY           MOCLDY    32  12  43 SW12      29.93F WCI  23
YELLOWSTONE LA MOCLDY    -4  -9  79 CALM      30.06S
SALMON         CLOUDY    27  19  72 CALM      30.22R
MULLAN PASS    FOG       21  21 100 VRB6      30.06S VSB M1/4 WCI  13
SAND POINT     CLOUDY    32  30  92 SW9       30.22S WCI  24
SPOKANE        LGT SNOW  28  28 100 S3        30.22F
$$

REGIONAL REPORTS...ALBERTA
CITY           SKY/WX    TMP DP  RH WIND       PRES   REMARKS
CALGARY        LGT SNOW  14  10  84 N17G24    30.25R VSB 1    WCI  -2
LETHBRIDGE     LGT SNOW  21  21 100 N9G17     30.15S VSB 3    WCI  11
MEDICINE HAT   LGT SNOW  21  18  88 NE15G26   30.17R WCI   7
EDMONTON       LGT SNOW   5   0  80 NE13      30.46R VSB 2 1/2 WCI -12
WATERTON GATE  N/A       25  23  92 NE6        N/A   WCI  18
CARDSTON       N/A       23  23 100 N9         N/A   WCI  13
MILK RIVER     N/A       23  21  92 N14        N/A   WCI  10
$$

REGIONAL REPORTS...SASKATCHEWAN
CITY           SKY/WX    TMP DP  RH WIND       PRES   REMARKS
SWIFT CURRENT  LGT SNOW   9   7  91 E22G30    30.19S VSB 2 1/2 WCI -11
REGINA         LGT SNOW   9   3  76 NE15      30.34R VSB 1 1/2 WCI  -8
VAL MARIE      N/A       21  19  92 NE17G24    N/A   WCI   7
ASSINIBOIA     N/A       12   9  88 NE20       N/A   WCI  -6
CORONACH       N/A       18  16  92 NE14       N/A   WCI   4

$$



USA.gov is the U.S. government's official web portal to all federal, state and local government web resources and services.